| time (UTC) | temp F | wind direction | speed MPH | gust MPH | rain 1hr in | rain 24hr in | rain mn in | humidity % | barometer mb |
| 20260504020857 | 57 | 41 | 0.0 | 0.0 | 0.00 | 0.01 | 0.01 | 81 | 1012.9 |
| 20260504020353 | 57 | 41 | 0.0 | 0.0 | 0.00 | 0.01 | 0.01 | 81 | 1012.7 |
| 20260504015849 | 57 | 41 | 0.0 | 0.0 | 0.00 | 0.01 | 0.01 | 80 | 1012.9 |
| 20260504015346 | 57 | 41 | 0.0 | 0.0 | 0.00 | 0.01 | 0.01 | 79 | 1012.7 |
| 20260504014842 | 58 | 41 | 0.0 | 0.0 | 0.00 | 0.01 | 0.01 | 79 | 1012.8 |
| 20260504014338 | 58 | 41 | 0.0 | 0.0 | 0.00 | 0.01 | 0.01 | 79 | 1012.7 |
| 20260504013836 | 58 | 41 | 0.0 | 1.0 | 0.00 | 0.01 | 0.01 | 78 | 1012.6 |
| 20260504013333 | 59 | 40 | 1.0 | 1.0 | 0.00 | 0.01 | 0.01 | 77 | 1012.6 |
| 20260504012830 | 59 | 40 | 0.0 | 0.0 | 0.00 | 0.01 | 0.01 | 77 | 1012.6 |
| 20260504012328 | 59 | 40 | 0.0 | 1.0 | 0.00 | 0.01 | 0.01 | 75 | 1012.6 |
| 20260504011825 | 60 | 39 | 1.0 | 1.0 | 0.00 | 0.01 | 0.01 | 74 | 1012.4 |
| 20260504011321 | 60 | 29 | 0.0 | 0.0 | 0.00 | 0.01 | 0.01 | 73 | 1012.3 |
| 20260504010817 | 61 | 29 | 0.0 | 0.0 | 0.00 | 0.01 | 0.01 | 72 | 1012.2 |
| 20260504010313 | 61 | 29 | 0.0 | 0.0 | 0.00 | 0.01 | 0.01 | 70 | 1012.2 |
| 20260504005810 | 62 | 29 | 0.0 | 0.0 | 0.00 | 0.01 | 0.01 | 67 | 1012.1 |
| 20260504005307 | 62 | 29 | 0.0 | 0.0 | 0.00 | 0.01 | 0.01 | 63 | 1012.1 |
| 20260504004804 | 62 | 28 | 1.0 | 1.0 | 0.00 | 0.01 | 0.01 | 61 | 1012.0 |
| 20260504004302 | 62 | 28 | 0.0 | 0.0 | 0.00 | 0.01 | 0.01 | 57 | 1011.9 |
| 20260504003758 | 63 | 28 | 0.0 | 0.0 | 0.00 | 0.01 | 0.01 | 56 | 1011.9 |
| 20260504003255 | 63 | 27 | 0.0 | 0.0 | 0.00 | 0.01 | 0.01 | 56 | 1012.0 |
| 20260504002751 | 64 | 27 | 0.0 | 0.0 | 0.00 | 0.01 | 0.01 | 56 | 1011.7 |
| 20260504002249 | 64 | 27 | 0.0 | 0.0 | 0.00 | 0.01 | 0.01 | 53 | 1011.8 |
| 20260504001746 | 65 | 27 | 0.0 | 0.0 | 0.00 | 0.01 | 0.01 | 49 | 1011.9 |
| 20260504001243 | 66 | 27 | 0.0 | 0.0 | 0.00 | 0.01 | 0.01 | 48 | 1012.0 |
| 20260504000740 | 67 | 27 | 0.0 | 1.0 | 0.00 | 0.01 | 0.01 | 49 | 1011.9 |
| 20260504000237 | 67 | 18 | 1.0 | 2.0 | 0.00 | 0.01 | 0.01 | 48 | 1011.7 |
| 20260503235735 | 68 | 16 | 1.0 | 2.0 | 0.00 | 0.01 | 0.01 | 45 | 1011.9 |
| 20260503235232 | 68 | 348 | 2.0 | 3.0 | 0.00 | 0.01 | 0.01 | 44 | 1011.7 |
| 20260503234730 | 68 | 1 | 1.0 | 2.0 | 0.00 | 0.01 | 0.01 | 44 | 1011.6 |
| 20260503234228 | 68 | 351 | 2.0 | 3.0 | 0.00 | 0.01 | 0.01 | 42 | 1011.9 |
| 20260503233725 | 69 | 317 | 3.0 | 3.0 | 0.00 | 0.01 | 0.01 | 42 | 1011.6 |
| 20260503233220 | 69 | 354 | 2.0 | 3.0 | 0.00 | 0.01 | 0.01 | 44 | 1011.9 |
| 20260503232717 | 69 | 310 | 3.0 | 5.0 | 0.00 | 0.01 | 0.01 | 42 | 1011.8 |
| 20260503232214 | 69 | 317 | 3.0 | 3.0 | 0.00 | 0.01 | 0.01 | 44 | 1011.8 |
| 20260503231713 | 69 | 300 | 3.0 | 5.0 | 0.00 | 0.01 | 0.01 | 43 | 1011.6 |
| 20260503231209 | 69 | 298 | 4.0 | 5.0 | 0.00 | 0.01 | 0.01 | 44 | 1011.7 |
| 20260503230705 | 69 | 302 | 4.0 | 5.0 | 0.00 | 0.01 | 0.01 | 44 | 1012.0 |
| 20260503230202 | 69 | 299 | 5.0 | 7.0 | 0.00 | 0.01 | 0.01 | 40 | 1012.0 |
| 20260503225659 | 69 | 280 | 6.0 | 9.0 | 0.00 | 0.01 | 0.01 | 41 | 1011.8 |
| 20260503225154 | 69 | 279 | 6.0 | 9.0 | 0.00 | 0.01 | 0.01 | 39 | 1012.0 |
| 20260503224652 | 69 | 304 | 3.0 | 3.0 | 0.00 | 0.01 | 0.01 | 42 | 1011.8 |
| 20260503224149 | 69 | 337 | 2.0 | 3.0 | 0.00 | 0.01 | 0.01 | 43 | 1011.8 |
| 20260503223647 | 69 | 343 | 3.0 | 5.0 | 0.00 | 0.01 | 0.01 | 41 | 1012.0 |
| 20260503223143 | 69 | 270 | 4.0 | 7.0 | 0.00 | 0.01 | 0.01 | 42 | 1011.9 |
| 20260503222640 | 69 | 260 | 5.0 | 8.0 | 0.00 | 0.01 | 0.01 | 44 | 1011.9 |
| 20260503222138 | 69 | 341 | 3.0 | 3.0 | 0.00 | 0.01 | 0.01 | 42 | 1011.9 |
| 20260503221636 | 70 | 333 | 3.0 | 5.0 | 0.00 | 0.01 | 0.01 | 39 | 1011.9 |
| 20260503221133 | 69 | 329 | 3.0 | 7.0 | 0.00 | 0.01 | 0.01 | 42 | 1012.1 |
| 20260503220630 | 69 | 34 | 1.0 | 1.0 | 0.00 | 0.01 | 0.01 | 39 | 1011.9 |
| 20260503220127 | 69 | 29 | 0.0 | 2.0 | 0.00 | 0.01 | 0.01 | 38 | 1011.8 |
| 20260503215624 | 69 | 314 | 3.0 | 5.0 | 0.00 | 0.01 | 0.01 | 41 | 1012.0 |
| 20260503215120 | 69 | 346 | 2.0 | 5.0 | 0.00 | 0.01 | 0.01 | 38 | 1011.8 |
| 20260503214619 | 69 | 17 | 1.0 | 3.0 | 0.00 | 0.01 | 0.01 | 44 | 1012.0 |
| 20260503214114 | 68 | 277 | 6.0 | 7.0 | 0.00 | 0.01 | 0.01 | 43 | 1011.9 |
| 20260503213609 | 69 | 289 | 5.0 | 6.0 | 0.00 | 0.01 | 0.01 | 40 | 1011.9 |
| 20260503213104 | 69 | 27 | 1.0 | 1.0 | 0.00 | 0.01 | 0.01 | 38 | 1012.0 |
| 20260503212602 | 69 | 353 | 2.0 | 2.0 | 0.00 | 0.01 | 0.01 | 40 | 1012.0 |
| 20260503212059 | 68 | 284 | 7.0 | 8.0 | 0.00 | 0.01 | 0.01 | 44 | 1012.1 |
| 20260503211556 | 68 | 296 | 4.0 | 5.0 | 0.00 | 0.01 | 0.01 | 42 | 1012.3 |
| 20260503211051 | 69 | 309 | 3.0 | 5.0 | 0.00 | 0.01 | 0.01 | 41 | 1012.2 |
| 20260503210549 | 69 | 23 | 1.0 | 1.0 | 0.00 | 0.01 | 0.01 | 38 | 1012.2 |
| 20260503210044 | 68 | 318 | 3.0 | 6.0 | 0.00 | 0.01 | 0.01 | 43 | 1012.0 |
| 20260503205541 | 68 | 310 | 3.0 | 7.0 | 0.00 | 0.01 | 0.01 | 38 | 1012.2 |
| 20260503205038 | 68 | 316 | 3.0 | 6.0 | 0.00 | 0.01 | 0.01 | 36 | 1012.1 |
| 20260503204534 | 69 | 330 | 3.0 | 5.0 | 0.00 | 0.01 | 0.01 | 44 | 1012.1 |
| 20260503204031 | 69 | 19 | 3.0 | 5.0 | 0.00 | 0.01 | 0.01 | 40 | 1012.0 |
| 20260503203529 | 69 | 291 | 3.0 | 5.0 | 0.00 | 0.01 | 0.01 | 40 | 1012.3 |
| 20260503203026 | 69 | 4 | 2.0 | 3.0 | 0.00 | 0.01 | 0.01 | 43 | 1012.3 |
| 20260503202524 | 69 | 322 | 3.0 | 6.0 | 0.00 | 0.01 | 0.01 | 41 | 1012.5 |
| 20260503202021 | 68 | 298 | 4.0 | 5.0 | 0.00 | 0.01 | 0.01 | 44 | 1012.5 |
| 20260503201520 | 69 | 296 | 9.0 | 14.0 | 0.00 | 0.01 | 0.01 | 41 | 1012.7 |
| 20260503201016 | 69 | 349 | 1.0 | 2.0 | 0.00 | 0.01 | 0.01 | 43 | 1012.8 |
| 20260503200512 | 68 | 298 | 5.0 | 7.0 | 0.00 | 0.01 | 0.01 | 44 | 1013.1 |
| 20260503200009 | 68 | 14 | 3.0 | 3.0 | 0.00 | 0.01 | 0.01 | 40 | 1013.0 |
| 20260503195507 | 68 | 286 | 7.0 | 11.0 | 0.00 | 0.01 | 0.01 | 42 | 1013.2 |
| 20260503195003 | 68 | 331 | 4.0 | 6.0 | 0.00 | 0.01 | 0.01 | 41 | 1013.2 |
| 20260503194501 | 67 | 314 | 5.0 | 8.0 | 0.00 | 0.01 | 0.01 | 43 | 1013.2 |
| 20260503193955 | 67 | 295 | 4.0 | 6.0 | 0.00 | 0.01 | 0.01 | 43 | 1013.2 |
| 20260503193451 | 68 | 332 | 3.0 | 6.0 | 0.00 | 0.01 | 0.01 | 43 | 1013.5 |
| 20260503192947 | 68 | 28 | 0.0 | 3.0 | 0.00 | 0.01 | 0.01 | 42 | 1013.7 |
| 20260503192443 | 67 | 284 | 5.0 | 6.0 | 0.00 | 0.01 | 0.01 | 47 | 1013.8 |
| 20260503191939 | 68 | 328 | 3.0 | 6.0 | 0.00 | 0.01 | 0.01 | 42 | 1013.9 |
| 20260503191437 | 66 | 303 | 3.0 | 8.0 | 0.00 | 0.01 | 0.01 | 43 | 1013.9 |
| 20260503190933 | 67 | 248 | 5.0 | 6.0 | 0.00 | 0.01 | 0.01 | 42 | 1013.9 |
| 20260503190431 | 67 | 333 | 2.0 | 3.0 | 0.00 | 0.01 | 0.01 | 42 | 1013.9 |
| 20260503185927 | 68 | 323 | 2.0 | 3.0 | 0.00 | 0.01 | 0.01 | 42 | 1014.1 |
| 20260503185424 | 68 | 350 | 3.0 | 3.0 | 0.00 | 0.01 | 0.01 | 40 | 1014.3 |
| 20260503184923 | 67 | 67 | 2.0 | 3.0 | 0.00 | 0.01 | 0.01 | 42 | 1014.4 |
| 20260503184420 | 66 | 330 | 3.0 | 3.0 | 0.00 | 0.01 | 0.01 | 43 | 1014.4 |
| 20260503183916 | 66 | 288 | 4.0 | 6.0 | 0.00 | 0.01 | 0.01 | 44 | 1014.5 |
| 20260503183413 | 66 | 312 | 3.0 | 3.0 | 0.00 | 0.01 | 0.01 | 45 | 1014.5 |
| 20260503182910 | 65 | 324 | 3.0 | 8.0 | 0.00 | 0.01 | 0.01 | 48 | 1014.6 |
| 20260503182409 | 65 | 339 | 4.0 | 7.0 | 0.00 | 0.01 | 0.01 | 46 | 1014.6 |
| 20260503181906 | 65 | 358 | 2.0 | 3.0 | 0.00 | 0.01 | 0.01 | 43 | 1014.8 |
| 20260503181403 | 65 | 15 | 2.0 | 3.0 | 0.00 | 0.01 | 0.01 | 47 | 1014.9 |
| 20260503180859 | 66 | 23 | 1.0 | 2.0 | 0.00 | 0.01 | 0.01 | 48 | 1014.8 |
| 20260503180357 | 67 | 18 | 1.0 | 2.0 | 0.00 | 0.01 | 0.01 | 45 | 1014.8 |
| 20260503175853 | 65 | 32 | 1.0 | 2.0 | 0.00 | 0.01 | 0.01 | 45 | 1015.1 |
| 20260503175351 | 65 | 37 | 1.0 | 2.0 | 0.00 | 0.01 | 0.01 | 46 | 1015.1 |
| 20260503174847 | 64 | 27 | 0.0 | 1.0 | 0.00 | 0.01 | 0.01 | 48 | 1015.2 |
| 20260503174345 | 64 | 26 | 1.0 | 2.0 | 0.00 | 0.01 | 0.01 | 49 | 1015.2 |
| 20260503173845 | 65 | 29 | 1.0 | 2.0 | 0.00 | 0.01 | 0.01 | 48 | 1015.2 |
| 20260503173342 | 65 | 7 | 2.0 | 2.0 | 0.00 | 0.01 | 0.01 | 47 | 1015.2 |
| 20260503172838 | 64 | 27 | 0.0 | 2.0 | 0.00 | 0.01 | 0.01 | 47 | 1015.3 |
| 20260503172336 | 63 | 38 | 0.0 | 1.0 | 0.00 | 0.01 | 0.01 | 47 | 1015.4 |
| 20260503171832 | 64 | 27 | 1.0 | 1.0 | 0.00 | 0.01 | 0.01 | 50 | 1015.3 |
| 20260503171329 | 64 | 26 | 3.0 | 3.0 | 0.00 | 0.01 | 0.01 | 48 | 1015.4 |
| 20260503170827 | 64 | 24 | 1.0 | 2.0 | 0.00 | 0.01 | 0.01 | 49 | 1015.5 |
| 20260503170323 | 64 | 51 | 1.0 | 2.0 | 0.00 | 0.01 | 0.01 | 48 | 1015.5 |
| 20260503150715 | 60 | 28 | 1.0 | 2.0 | 0.00 | 0.01 | 0.01 | 59 | 1016.7 |
| 20260503150211 | 60 | 57 | 0.0 | 1.0 | 0.00 | 0.01 | 0.01 | 57 | 1016.7 |
| 20260503140136 | 57 | 47 | 0.0 | 1.0 | 0.00 | 0.01 | 0.01 | 68 | 1016.6 |
| 20260503131105 | 53 | 50 | 0.0 | 0.0 | 0.00 | 0.01 | 0.01 | 95 | 1016.3 |
| 20260503130603 | 52 | 48 | 0.0 | 0.0 | 0.00 | 0.01 | 0.01 | 96 | 1016.3 |
| 20260503110453 | 46 | 38 | 0.0 | 0.0 | 0.00 | 0.01 | 0.01 | 96 | 1015.0 |
| 20260503090338 | 49 | 30 | 1.0 | 1.0 | 0.07 | 0.01 | 0.01 | 96 | 1013.4 |
| 20260503081300 | 49 | 349 | 2.0 | 3.0 | 0.00 | 0.00 | 0.00 | 95 | 1013.2 |
| 20260503080756 | 49 | 350 | 2.0 | 2.0 | 0.00 | 0.00 | 0.00 | 94 | 1013.0 |
| 20260503080254 | 49 | 10 | 2.0 | 2.0 | 0.00 | 0.00 | 0.00 | 94 | 1012.8 |
| 20260503072730 | 49 | 28 | 1.0 | 1.0 | 0.00 | 0.00 | 0.00 | 91 | 1012.7 |
| 20260503072226 | 49 | 28 | 0.0 | 1.0 | 0.00 | 0.00 | 0.00 | 91 | 1012.5 |
| 20260503071723 | 49 | 41 | 0.0 | 1.0 | 0.00 | 0.00 | 0.00 | 91 | 1012.5 |
| 20260503071220 | 49 | 45 | 0.0 | 0.0 | 0.00 | 0.00 | 0.00 | 90 | 1012.1 |
| 20260503070717 | 49 | 45 | 0.0 | 0.0 | 0.00 | 0.00 | 0.00 | 90 | 1012.2 |
| 20260503070215 | 50 | 35 | 0.0 | 0.0 | 0.00 | 0.00 | 0.00 | 90 | 1012.3 |
| 20260503060139 | 53 | 356 | 3.0 | 5.0 | 0.00 | 0.00 | 0.00 | 90 | 1012.2 |
| 20260503054626 | 53 | 310 | 3.0 | 5.0 | 0.00 | 0.00 | 0.00 | 89 | 1012.2 |
| 20260503054123 | 53 | 293 | 4.0 | 5.0 | 0.00 | 0.00 | 0.00 | 90 | 1012.1 |
| 20260503053621 | 53 | 292 | 4.0 | 6.0 | 0.00 | 0.00 | 0.00 | 89 | 1012.0 |
| 20260503053120 | 53 | 322 | 3.0 | 5.0 | 0.00 | 0.00 | 0.00 | 89 | 1012.2 |
| 20260503052616 | 53 | 315 | 3.0 | 5.0 | 0.00 | 0.00 | 0.00 | 89 | 1011.9 |
| 20260503052112 | 53 | 283 | 5.0 | 6.0 | 0.00 | 0.00 | 0.00 | 89 | 1012.1 |
| 20260503051608 | 53 | 17 | 2.0 | 2.0 | 0.00 | 0.00 | 0.00 | 89 | 1012.1 |
| 20260503051106 | 53 | 301 | 4.0 | 5.0 | 0.00 | 0.00 | 0.00 | 89 | 1011.9 |
| 20260503050602 | 54 | 293 | 6.0 | 7.0 | 0.00 | 0.00 | 0.00 | 90 | 1011.8 |
| 20260503050059 | 54 | 315 | 3.0 | 5.0 | 0.00 | 0.00 | 0.00 | 90 | 1011.7 |
| 20260503045556 | 54 | 348 | 1.0 | 2.0 | 0.00 | 0.00 | 0.00 | 90 | 1011.6 |
| 20260503045053 | 54 | 32 | 1.0 | 2.0 | 0.00 | 0.00 | 0.00 | 90 | 1011.7 |
| 20260503044549 | 54 | 36 | 2.0 | 2.0 | 0.00 | 0.00 | 0.00 | 90 | 1011.7 |
| 20260503044047 | 54 | 28 | 1.0 | 2.0 | 0.00 | 0.00 | 0.00 | 90 | 1011.6 |
| 20260503043543 | 54 | 34 | 1.0 | 2.0 | 0.00 | 0.00 | 0.00 | 90 | 1011.4 |
| 20260503043040 | 54 | 22 | 1.0 | 2.0 | 0.00 | 0.00 | 0.00 | 90 | 1011.4 |
| 20260503042537 | 54 | 33 | 1.0 | 1.0 | 0.00 | 0.00 | 0.00 | 90 | 1011.4 |
| 20260503042033 | 55 | 30 | 1.0 | 2.0 | 0.00 | 0.00 | 0.00 | 90 | 1011.5 |
| 20260503041530 | 55 | 34 | 1.0 | 1.0 | 0.00 | 0.00 | 0.00 | 90 | 1011.5 |
| 20260503041028 | 55 | 29 | 1.0 | 2.0 | 0.00 | 0.00 | 0.00 | 90 | 1011.5 |
| 20260503040525 | 55 | 303 | 4.0 | 5.0 | 0.00 | 0.00 | 0.00 | 90 | 1011.3 |
| 20260503040022 | 55 | 32 | 1.0 | 1.0 | 0.00 | 0.47 | 0.47 | 90 | 1011.2 |
| 20260503035519 | 54 | 32 | 1.0 | 1.0 | 0.00 | 0.47 | 0.47 | 89 | 1011.2 |
| 20260503035017 | 54 | 39 | 0.0 | 0.0 | 0.00 | 0.47 | 0.47 | 89 | 1011.1 |
| 20260503034514 | 54 | 39 | 0.0 | 0.0 | 0.00 | 0.47 | 0.47 | 89 | 1011.1 |
| 20260503034010 | 54 | 39 | 0.0 | 0.0 | 0.00 | 0.47 | 0.47 | 89 | 1011.2 |
| 20260503033508 | 54 | 39 | 0.0 | 0.0 | 0.00 | 0.47 | 0.47 | 89 | 1011.2 |
| 20260503033006 | 54 | 39 | 0.0 | 0.0 | 0.00 | 0.47 | 0.47 | 89 | 1011.2 |
| 20260503032504 | 54 | 39 | 0.0 | 0.0 | 0.00 | 0.47 | 0.47 | 89 | 1011.2 |
| 20260503032002 | 54 | 39 | 0.0 | 0.0 | 0.00 | 0.47 | 0.47 | 89 | 1011.2 |
| 20260503031459 | 55 | 38 | 0.0 | 0.0 | 0.00 | 0.47 | 0.47 | 89 | 1011.4 |
| 20260503030955 | 54 | 43 | 0.0 | 0.0 | 0.00 | 0.47 | 0.47 | 89 | 1011.2 |
| 20260503030452 | 54 | 65 | 2.0 | 3.0 | 0.00 | 0.47 | 0.47 | 89 | 1011.0 |
| 20260503025949 | 54 | 87 | 2.0 | 3.0 | 0.00 | 0.47 | 0.47 | 89 | 1010.8 |
| 20260503025446 | 54 | 51 | 0.0 | 1.0 | 0.00 | 0.47 | 0.47 | 89 | 1010.9 |
| 20260503024943 | 54 | 12 | 1.0 | 3.0 | 0.00 | 0.47 | 0.47 | 89 | 1010.9 |
| 20260503024440 | 55 | 275 | 5.0 | 6.0 | 0.00 | 0.47 | 0.47 | 89 | 1010.7 |
| 20260503023937 | 55 | 301 | 4.0 | 6.0 | 0.00 | 0.47 | 0.47 | 89 | 1010.8 |
| 20260503023434 | 55 | 298 | 4.0 | 5.0 | 0.00 | 0.47 | 0.47 | 89 | 1010.7 |
| 20260503022931 | 55 | 306 | 3.0 | 5.0 | 0.00 | 0.47 | 0.47 | 89 | 1010.8 |
| 20260503022426 | 55 | 258 | 4.0 | 5.0 | 0.00 | 0.47 | 0.47 | 88 | 1010.9 |
| 20260503021922 | 55 | 304 | 4.0 | 6.0 | 0.00 | 0.47 | 0.47 | 88 | 1011.1 |
| 20260503021418 | 56 | 321 | 4.0 | 6.0 | 0.05 | 0.47 | 0.47 | 87 | 1011.1 |
| 20260503020916 | 56 | 315 | 4.0 | 5.0 | 0.05 | 0.47 | 0.47 | 86 | 1010.8 |